Pemberton, British Columbia

7:43 AM PDT on May 26, 2018 (GMT -0700)
Pemberton

Weather History for CWGP - July, 2013

Change the Weather History Date:

Tuesday, July 30, 2013

  Actual Average Record
Temperature  
Mean Temperature 68 °F -  
Max Temperature 90 °F 74 °F - ()
Min Temperature 47 °F 47 °F - ()
Cooling Degree Days 4    
Growing Degree Days 18 (Base 50)    
Moisture  
Dew Point 47 °F    
Average Humidity 58    
Maximum Humidity 94    
Minimum Humidity 10    
Precipitation  
Precipitation 0.00 in - - ()
Sea Level Pressure  
Sea Level Pressure 30.06 in    
Wind  
Wind Speed - ()    
Max Wind Speed -    
Max Gust Speed -    
T = Trace of Precipitation, MM = Missing Value Source: Averaged Metar Reports

Daily Weather History Graph

Daily Weather History Graph

Search for Another Location

Airport or City:

Astronomy

Jul. 30, 2013 Rise Set
Actual Time 5:36 AM PDT 8:56 PM PDT
Civil Twilight 4:57 AM PDT 9:36 PM PDT
Nautical Twilight 4:05 AM PDT 10:27 PM PDT
Astronomical Twilight 2:54 AM PDT 11:36 PM PDT
Moon 12:03 AM PDT (7/30) 3:20 PM PDT (7/30)
Length of Visible Light 16h 38m
Length of Day
15h 19m
Last Quarter, 40% of the Moon is Illuminated
Jul 30
Last Quarter
Aug 6
New
Aug 14
First Quarter
Aug 20
Full
Aug 28
Last Quarter

Hourly Weather History & Observations

Time (PDT) Temp. Dew Point Humidity Pressure Visibility Wind Dir Wind Speed Gust Speed Precip Events Conditions
12:00 AM 54.3 °F 49.5 °F 84% 29.99 in - North - - N/A   Unknown
1:00 AM 52.5 °F 48.2 °F 85% 30.01 in - North - - N/A   Unknown
2:00 AM 51.1 °F 46.9 °F 86% 30.03 in - North - - N/A   Unknown
3:00 AM 49.8 °F 46.8 °F 89% 30.05 in - North - - N/A   Unknown
4:00 AM 48.7 °F 46.0 °F 90% 30.06 in - North - - N/A   Unknown
5:00 AM 48 °F 46 °F 90% 30.08 in - Calm Calm - -  
5:00 AM 47.8 °F 46.0 °F 93% 30.08 in - North - - N/A   Unknown
6:00 AM 47.3 °F 45.7 °F 94% 30.10 in - North - - N/A   Unknown
7:00 AM 47.8 °F 46.2 °F 94% 30.12 in - North - - N/A   Unknown
8:00 AM 54.7 °F 49.5 °F 83% 30.12 in - North - - N/A   Unknown
9:00 AM 63.3 °F 44.6 °F 50% 30.13 in - North - - N/A   Unknown
10:00 AM 67.8 °F 43.2 °F 41% 30.12 in - North - - N/A   Unknown
11:00 AM 72 °F 44 °F 25% 30.09 in - Calm Calm - -  
11:00 AM 72.1 °F 43.9 °F 36% 30.09 in - North - - N/A   Unknown
12:00 PM 79.2 °F 41.0 °F 26% 30.06 in - North - - N/A   Unknown
1:00 PM 81.9 °F 41.7 °F 24% 30.05 in - North - - N/A   Unknown
2:00 PM 85.8 °F 40.3 °F 20% 30.03 in - North - - N/A   Unknown
3:00 PM 85.3 °F 47.1 °F 26% 30.04 in - North - - N/A   Unknown
4:00 PM 88.3 °F 41.2 °F 19% 30.03 in - North - - N/A   Unknown
5:00 PM 88 °F 39 °F 10% 30.02 in - Calm Calm - -  
5:00 PM 88.2 °F 38.8 °F 18% 30.02 in - North - - N/A   Unknown
6:00 PM 85.1 °F 52.5 °F 32% 30.01 in - North - - N/A   Unknown
7:00 PM 79.2 °F 58.3 °F 49% 30.01 in - North - - N/A   Unknown
8:00 PM 78.3 °F 58.3 °F 50% 30.01 in - North - - N/A   Unknown
9:00 PM 66.6 °F 57.6 °F 73% 30.02 in - North - - N/A   Unknown
10:00 PM 61.7 °F 54.9 °F 78% 30.06 in - North - - N/A   Unknown
11:00 PM 59 °F 53 °F 73% 30.08 in - Calm Calm - -  
11:00 PM 58.8 °F 52.5 °F 80% 30.08 in - North - - N/A   Unknown